Location: ???????
(55.4231°N, 38.5570°E)
Time: 13:42:07
(UTC+00:00)

Cosmos 2237 Rocket - Pass Details

Date: 05 August 2024
Orbit: 835 x 848 km, 71.0° (Epoch: 19 September)

Event Time Altitude Azimuth Distance (km) Brightness Sun altitude
Rises 00:23:15 0° 163° (SSE) 3,388 5.0 -9.1°
Reaches altitude 10° 00:26:14 10° 148° (SSE) 2,456 4.5 -8.9°
Maximum altitude 00:30:18 21° 101° (ESE) 1,814 4.4 -8.5°
Drops below altitude 10° 00:34:22 10° 55° (NE) 2,463 6.2 -8.1°
Sets 00:37:22 0° 40° (NE) 3,401 7.9 -7.8°
